Tracking 29790 objects as of 12-Oct-2024
HD Live streaming from Space Station
objects crossing your sky now

SL-8 DEB

Track SL-8 DEB now!
10-day predictions


NORAD ID: 21406
Int'l Code: 1991-009BV
Perigee: 1,442.7 km
Apogee: 1,655.6 km
Inclination: 73.9 °
Period: 116.9 minutes
Semi major axis: 7920 km
RCS: 0.1021 m2 (medium)
Launch date: February 12, 1991
Source: Commonwealth of Independent States (former USSR) (CIS)
Launch site: PLESETSK MISSILE AND SPACE COMPLEX (PKMTR)

Note: This is SATELLITE DEBRIS
Your satellite tracking list
Your tracking list is empty




NASA's NSSDC Master Catalog

Two Line Element Set (TLE):
1 21406U 91009BV  24286.07044448  .00000149  00000-0  13363-2 0  9997
2 21406  73.9134 155.0102 0134414 213.6189 299.7482 12.31689778505422
Source of the keplerian elements: AFSPC